Time,TemperatureF,DewpointF,PressureIn,WindDirection,WindDirectionDegrees,WindSpeedMPH,WindSpeedGustMPH,Humidity,HourlyPrecipIn,Conditions,Clouds,dailyrainin,SoftwareType,DateUTC
2013-02-12 00:07:00,55.9,55.6,29.81,NNE,22,2.2,-999.0,99,-99.99,,,0.00,Acu-Link.com,2013-02-12 05:07:00,
2013-02-12 00:22:00,55.8,55.5,29.81,NE,45,1.7,-999.0,99,-99.99,,,0.00,Acu-Link.com,2013-02-12 05:22:00,
2013-02-12 00:38:00,55.2,54.9,29.81,South,180,1.7,-999.0,99,-99.99,,,0.00,Acu-Link.com,2013-02-12 05:38:00,
2013-02-12 00:53:00,55.0,54.7,29.81,West,270,1.1,-999.0,99,-99.99,,,0.00,Acu-Link.com,2013-02-12 05:53:00,
2013-02-12 01:08:00,54.9,54.6,29.81,SSW,202,2.7,-999.0,99,-99.99,,,0.00,Acu-Link.com,2013-02-12 06:08:00,
2013-02-12 01:23:00,54.9,54.6,29.82,SW,225,1.1,-999.0,99,-99.99,,,0.00,Acu-Link.com,2013-02-12 06:23:00,
2013-02-12 01:38:00,54.7,54.4,29.83,West,270,1.7,-999.0,99,-99.99,,,0.00,Acu-Link.com,2013-02-12 06:38:00,
2013-02-12 01:54:00,53.4,53.1,29.83,West,270,0.0,-999.0,99,-99.99,,,0.00,Acu-Link.com,2013-02-12 06:54:00,
2013-02-12 02:09:00,53.2,52.9,29.83,SSW,202,4.2,-999.0,99,-99.99,,,0.00,Acu-Link.com,2013-02-12 07:09:00,
2013-02-12 02:24:00,53.6,53.3,29.84,West,270,0.0,-999.0,99,-99.99,,,0.00,Acu-Link.com,2013-02-12 07:24:00,
2013-02-12 02:39:00,53.1,52.8,29.84,South,180,1.1,-999.0,99,-99.99,,,0.00,Acu-Link.com,2013-02-12 07:39:00,
2013-02-12 03:22:00,52.5,52.2,29.84,NNE,22,1.1,-999.0,99,-99.99,,,0.00,Acu-Link.com,2013-02-12 08:22:00,
2013-02-12 03:37:00,52.3,52.0,29.84,SW,225,0.0,-999.0,99,-99.99,,,0.00,Acu-Link.com,2013-02-12 08:37:00,
2013-02-12 03:52:00,52.0,51.7,29.84,NE,45,2.2,-999.0,99,-99.99,,,0.00,Acu-Link.com,2013-02-12 08:52:00,
2013-02-12 04:18:00,51.3,51.0,29.84,NE,45,1.7,-999.0,99,-99.99,,,0.00,Acu-Link.com,2013-02-12 09:18:00,
2013-02-12 04:33:00,50.7,50.4,29.85,SSW,202,2.2,-999.0,99,-99.99,,,0.00,Acu-Link.com,2013-02-12 09:33:00,
2013-02-12 04:49:00,49.6,49.3,29.84,SW,225,0.0,-999.0,99,-99.99,,,0.00,Acu-Link.com,2013-02-12 09:49:00,
2013-02-12 05:04:00,48.6,48.3,29.86,South,180,0.0,-999.0,99,-99.99,,,0.00,Acu-Link.com,2013-02-12 10:04:00,
2013-02-12 05:19:00,49.3,49.0,29.85,West,270,2.2,-999.0,99,-99.99,,,0.00,Acu-Link.com,2013-02-12 10:19:00,
2013-02-12 05:34:00,49.1,47.4,29.85,WSW,247,1.7,-999.0,94,-99.99,,,0.00,Acu-Link.com,2013-02-12 10:34:00,
2013-02-12 05:49:00,48.9,45.8,29.87,ESE,112,1.1,-999.0,89,-99.99,,,0.00,Acu-Link.com,2013-02-12 10:49:00,
2013-02-12 06:04:00,48.7,42.8,29.86,WSW,247,1.1,-999.0,80,-99.99,,,0.00,Acu-Link.com,2013-02-12 11:04:00,
2013-02-12 06:19:00,48.4,40.8,29.87,ESE,112,2.2,-999.0,75,-99.99,,,0.00,Acu-Link.com,2013-02-12 11:19:00,
2013-02-12 06:35:00,47.7,39.8,29.87,SSW,202,2.7,-999.0,74,-99.99,,,0.00,Acu-Link.com,2013-02-12 11:35:00,
2013-02-12 06:50:00,47.7,37.7,29.88,South,180,2.2,-999.0,68,-99.99,,,0.00,Acu-Link.com,2013-02-12 11:50:00,
2013-02-12 07:05:00,46.8,35.7,29.88,SSE,157,2.7,-999.0,65,-99.99,,,0.00,Acu-Link.com,2013-02-12 12:05:00,
2013-02-12 07:20:00,46.8,32.8,29.88,South,180,3.7,-999.0,58,-99.99,,,0.00,Acu-Link.com,2013-02-12 12:20:00,
2013-02-12 07:35:00,47.1,30.9,29.90,SSW,202,2.7,-999.0,53,-99.99,,,0.00,Acu-Link.com,2013-02-12 12:35:00,
2013-02-12 07:50:00,46.2,30.5,29.91,South,180,5.8,-999.0,54,-99.99,,,0.00,Acu-Link.com,2013-02-12 12:50:00,
2013-02-12 08:06:00,46.4,30.2,29.92,SSW,202,2.7,-999.0,53,-99.99,,,0.00,Acu-Link.com,2013-02-12 13:06:00,
2013-02-12 08:21:00,46.6,29.9,29.92,SSW,202,2.2,-999.0,52,-99.99,,,0.00,Acu-Link.com,2013-02-12 13:21:00,
2013-02-12 08:36:00,46.4,30.2,29.92,SSW,202,0.0,-999.0,53,-99.99,,,0.00,Acu-Link.com,2013-02-12 13:36:00,
2013-02-12 08:51:00,49.6,29.7,29.93,WSW,247,4.2,-999.0,46,-99.99,,,0.00,Acu-Link.com,2013-02-12 13:51:00,
2013-02-12 09:06:00,49.8,29.9,29.93,West,270,4.7,-999.0,46,-99.99,,,0.00,Acu-Link.com,2013-02-12 14:06:00,
2013-02-12 09:22:00,51.1,29.4,29.94,SSW,202,2.7,-999.0,43,-99.99,,,0.00,Acu-Link.com,2013-02-12 14:22:00,
2013-02-12 09:37:00,53.1,29.4,29.94,East,90,1.1,-999.0,40,-99.99,,,0.00,Acu-Link.com,2013-02-12 14:37:00,
2013-02-12 09:52:00,53.2,28.3,29.94,SSW,202,5.8,-999.0,38,-99.99,,,0.00,Acu-Link.com,2013-02-12 14:52:00,
2013-02-12 10:08:00,54.9,27.1,29.95,SSE,157,5.8,-999.0,34,-99.99,,,0.00,Acu-Link.com,2013-02-12 15:08:00,
2013-02-12 10:23:00,55.8,28.6,29.95,SSW,202,5.3,-999.0,35,-99.99,,,0.00,Acu-Link.com,2013-02-12 15:23:00,
2013-02-12 10:38:00,57.7,30.9,29.95,SSE,157,7.3,-999.0,36,-99.99,,,0.00,Acu-Link.com,2013-02-12 15:38:00,
2013-02-12 10:54:00,58.8,29.8,29.95,SW,225,2.7,-999.0,33,-99.99,,,0.00,Acu-Link.com,2013-02-12 15:54:00,
2013-02-12 11:09:00,60.1,30.1,29.95,SSW,202,4.2,-999.0,32,-99.99,,,0.00,Acu-Link.com,2013-02-12 16:09:00,
2013-02-12 11:24:00,59.9,30.0,29.94,SW,225,2.2,-999.0,32,-99.99,,,0.00,Acu-Link.com,2013-02-12 16:24:00,
2013-02-12 11:39:00,62.2,32.0,29.93,ENE,67,2.2,-999.0,32,-99.99,,,0.00,Acu-Link.com,2013-02-12 16:39:00,
2013-02-12 11:54:00,58.5,28.8,29.92,NNW,337,1.1,-999.0,32,-99.99,,,0.00,Acu-Link.com,2013-02-12 16:54:00,
2013-02-12 12:09:00,57.6,30.2,29.91,WSW,247,3.7,-999.0,35,-99.99,,,0.00,Acu-Link.com,2013-02-12 17:09:00,
2013-02-12 12:25:00,57.0,26.7,29.90,SSW,202,5.8,-999.0,31,-99.99,,,0.00,Acu-Link.com,2013-02-12 17:25:00,
2013-02-12 12:40:00,56.8,27.3,29.88,West,270,3.7,-999.0,32,-99.99,,,0.00,Acu-Link.com,2013-02-12 17:40:00,
2013-02-12 12:55:00,56.7,27.9,29.88,SSW,202,3.7,-999.0,33,-99.99,,,0.00,Acu-Link.com,2013-02-12 17:55:00,
2013-02-12 13:10:00,56.7,27.9,29.88,WSW,247,1.7,-999.0,33,-99.99,,,0.00,Acu-Link.com,2013-02-12 18:10:00,
2013-02-12 13:25:00,57.9,29.7,29.87,SW,225,1.7,-999.0,34,-99.99,,,0.00,Acu-Link.com,2013-02-12 18:25:00,
2013-02-12 13:40:00,59.0,29.2,29.86,SSW,202,3.2,-999.0,32,-99.99,,,0.00,Acu-Link.com,2013-02-12 18:40:00,
2013-02-12 13:56:00,58.6,27.3,29.85,South,180,3.7,-999.0,30,-99.99,,,0.00,Acu-Link.com,2013-02-12 18:56:00,
2013-02-12 14:11:00,59.7,26.6,29.83,South,180,1.7,-999.0,28,-99.99,,,0.00,Acu-Link.com,2013-02-12 19:11:00,
2013-02-12 14:26:00,60.1,27.7,29.83,South,180,3.2,-999.0,29,-99.99,,,0.00,Acu-Link.com,2013-02-12 19:26:00,
2013-02-12 14:42:00,60.3,29.5,29.85,NNE,22,1.7,-999.0,31,-99.99,,,0.00,Acu-Link.com,2013-02-12 19:42:00,
2013-02-12 14:57:00,60.1,28.6,29.85,South,180,4.2,-999.0,30,-99.99,,,0.00,Acu-Link.com,2013-02-12 19:57:00,
2013-02-12 15:12:00,59.7,28.2,29.85,WSW,247,2.2,-999.0,30,-99.99,,,0.00,Acu-Link.com,2013-02-12 20:12:00,
2013-02-12 15:27:00,60.4,30.4,29.85,NE,45,1.7,-999.0,32,-99.99,,,0.00,Acu-Link.com,2013-02-12 20:27:00,
2013-02-12 15:43:00,60.3,28.7,29.85,NNE,22,2.2,-999.0,30,-99.99,,,0.00,Acu-Link.com,2013-02-12 20:43:00,
2013-02-12 15:58:00,59.0,26.8,29.84,SSW,202,4.2,-999.0,29,-99.99,,,0.00,Acu-Link.com,2013-02-12 20:58:00,
2013-02-12 16:13:00,59.0,29.2,29.84,NE,45,2.7,-999.0,32,-99.99,,,0.00,Acu-Link.com,2013-02-12 21:13:00,
2013-02-12 16:29:00,57.9,28.2,29.84,South,180,2.7,-999.0,32,-99.99,,,0.00,Acu-Link.com,2013-02-12 21:29:00,
2013-02-12 16:44:00,57.6,30.2,29.85,North,0,1.1,-999.0,35,-99.99,,,0.00,Acu-Link.com,2013-02-12 21:44:00,
2013-02-12 16:59:00,57.0,29.6,29.85,South,180,2.7,-999.0,35,-99.99,,,0.00,Acu-Link.com,2013-02-12 21:59:00,
2013-02-12 17:15:00,56.3,29.7,29.86,South,180,0.0,-999.0,36,-99.99,,,0.00,Acu-Link.com,2013-02-12 22:15:00,
2013-02-12 17:30:00,55.8,29.9,29.85,NNE,22,0.0,-999.0,37,-99.99,,,0.00,Acu-Link.com,2013-02-12 22:30:00,
2013-02-12 17:45:00,54.7,30.2,29.85,South,180,1.7,-999.0,39,-99.99,,,0.00,Acu-Link.com,2013-02-12 22:45:00,
2013-02-12 18:00:00,53.6,31.1,29.83,NE,45,0.0,-999.0,42,-99.99,,,0.00,Acu-Link.com,2013-02-12 23:00:00,
2013-02-12 18:15:00,52.7,30.8,29.85,NE,45,0.0,-999.0,43,-99.99,,,0.00,Acu-Link.com,2013-02-12 23:15:00,
2013-02-12 18:31:00,52.2,32.1,29.84,WNW,292,0.0,-999.0,46,-99.99,,,0.00,Acu-Link.com,2013-02-12 23:31:00,
2013-02-12 18:46:00,51.6,33.6,29.83,WNW,292,0.0,-999.0,50,-99.99,,,0.00,Acu-Link.com,2013-02-12 23:46:00,
2013-02-12 19:01:00,51.3,32.3,29.85,NNW,337,0.0,-999.0,48,-99.99,,,0.00,Acu-Link.com,2013-02-13 00:01:00,
2013-02-12 19:16:00,50.9,32.9,29.83,ENE,67,2.2,-999.0,50,-99.99,,,0.00,Acu-Link.com,2013-02-13 00:16:00,
2013-02-12 19:32:00,50.5,34.0,29.82,NNW,337,0.0,-999.0,53,-99.99,,,0.00,Acu-Link.com,2013-02-13 00:32:00,
2013-02-12 19:47:00,50.2,34.2,29.82,North,0,0.0,-999.0,54,-99.99,,,0.00,Acu-Link.com,2013-02-13 00:47:00,
2013-02-12 20:02:00,50.2,35.6,29.78,ESE,112,0.0,-999.0,57,-99.99,,,0.00,Acu-Link.com,2013-02-13 01:02:00,
2013-02-12 20:17:00,49.6,35.0,29.77,NE,45,0.0,-999.0,57,-99.99,,,0.00,Acu-Link.com,2013-02-13 01:17:00,
2013-02-12 20:33:00,49.5,34.5,29.77,East,90,0.0,-999.0,56,-99.99,,,0.00,Acu-Link.com,2013-02-13 01:33:00,
2013-02-12 20:48:00,49.6,35.9,29.82,NE,45,0.0,-999.0,59,-99.99,,,0.00,Acu-Link.com,2013-02-13 01:48:00,
2013-02-12 21:03:00,49.6,35.4,29.84,South,180,0.0,-999.0,58,-99.99,,,0.00,Acu-Link.com,2013-02-13 02:03:00,
2013-02-12 21:18:00,49.5,35.3,29.85,South,180,0.0,-999.0,58,-99.99,,,0.00,Acu-Link.com,2013-02-13 02:18:00,
2013-02-12 21:34:00,49.1,35.4,29.83,SSW,202,0.0,-999.0,59,-99.99,,,0.00,Acu-Link.com,2013-02-13 02:34:00,
2013-02-12 21:49:00,49.5,35.3,29.86,SSE,157,0.0,-999.0,58,-99.99,,,0.00,Acu-Link.com,2013-02-13 02:49:00,
2013-02-12 22:04:00,49.3,36.0,29.85,South,180,0.0,-999.0,60,-99.99,,,0.00,Acu-Link.com,2013-02-13 03:04:00,
2013-02-12 22:19:00,48.9,35.2,29.85,NE,45,0.0,-999.0,59,-99.99,,,0.00,Acu-Link.com,2013-02-13 03:19:00,
2013-02-12 22:35:00,48.9,36.5,29.86,SSE,157,0.0,-999.0,62,-99.99,,,0.00,Acu-Link.com,2013-02-13 03:35:00,
2013-02-12 22:50:00,49.1,35.8,29.83,NNW,337,0.0,-999.0,60,-99.99,,,0.00,Acu-Link.com,2013-02-13 03:50:00,
2013-02-12 23:05:00,48.9,37.7,29.82,NW,315,0.0,-999.0,65,-99.99,,,0.00,Acu-Link.com,2013-02-13 04:05:00,
2013-02-12 23:21:00,48.9,36.9,29.82,ESE,112,1.1,-999.0,63,-99.99,,,0.00,Acu-Link.com,2013-02-13 04:21:00,
2013-02-12 23:36:00,49.1,37.1,29.81,East,90,1.7,-999.0,63,-99.99,,,0.00,Acu-Link.com,2013-02-13 04:36:00,
2013-02-12 23:51:00,49.1,37.8,29.81,SW,225,0.0,-999.0,65,-99.99,,,0.00,Acu-Link.com,2013-02-13 04:51:00,